This is the latest recevied weather packets stored in our database for station/object KX4O-13. If no packets are shown the sender has not sent any weather packets the latest 10 day(s).
| Time | Temp. | Humidity | Pressure | Rain* | Wind** | Luminosity | Snow |
|---|---|---|---|---|---|---|---|
| 1777309266 | 20° C | 49% | 1024.3 hPa | 0 mm | - | 870 W/m² | - |
| 1777308966 | 19.44° C | 51% | 1024.5 hPa | 0 mm | - | 867 W/m² | - |
| 1777308666 | 18.89° C | 51% | 1024.5 hPa | 0 mm | - | 851 W/m² | - |
| 1777308366 | 19.44° C | 47% | 1024.5 hPa | 0 mm | - | 858 W/m² | - |
| 1777308066 | 18.89° C | 57% | 1024.7 hPa | 0 mm | - | 851 W/m² | - |
| 1777307766 | 17.78° C | 54% | 1024.7 hPa | 0 mm | - | 849 W/m² | - |
| 1777307466 | 18.89° C | 54% | 1024.7 hPa | 0 mm | - | 860 W/m² | - |
| 1777307166 | 17.78° C | 53% | 1024.7 hPa | 0 mm | - | 854 W/m² | - |
| 1777306866 | 18.33° C | 53% | 1024.9 hPa | 0 mm | - | 851 W/m² | - |
| 1777306566 | 18.33° C | 56% | 1024.9 hPa | 0 mm | - | 874 W/m² | - |
| 1777306266 | 17.78° C | 53% | 1024.9 hPa | 0 mm | - | 830 W/m² | - |
| 1777305966 | 17.78° C | 53% | 1025 hPa | 0 mm | - | 817 W/m² | - |
| 1777305666 | 18.89° C | 55% | 1025 hPa | 0 mm | - | 817 W/m² | - |
| 1777305366 | 18.33° C | 55% | 1024.9 hPa | 0 mm | - | 810 W/m² | - |
| 1777305066 | 17.22° C | 53% | 1024.9 hPa | 0 mm | - | 807 W/m² | - |
| 1777304766 | 17.22° C | 53% | 1024.9 hPa | 0 mm | - | 796 W/m² | - |
| 1777304466 | 17.22° C | 56% | 1024.9 hPa | 0 mm | - | 788 W/m² | - |
| 1777304166 | 17.22° C | 56% | 1024.9 hPa | 0 mm | - | 793 W/m² | - |
| 1777303866 | 17.22° C | 56% | 1025.1 hPa | 0 mm | - | 779 W/m² | - |
| 1777303566 | 17.22° C | 56% | 1025.1 hPa | 0 mm | - | 761 W/m² | - |
| 1777303266 | 16.67° C | 57% | 1025.2 hPa | 0 mm | - | 763 W/m² | - |
| 1777302966 | 16.67° C | 56% | 1025 hPa | 0 mm | - | 731 W/m² | - |
| 1777302666 | 17.22° C | 59% | 1025.1 hPa | 0 mm | - | 731 W/m² | - |
| 1777302366 | 16.67° C | 63% | 1025.2 hPa | 0 mm | - | 726 W/m² | - |
| 1777302066 | 16.67° C | 63% | 1025.1 hPa | 0 mm | - | 731 W/m² | - |
* Rain latest hour (hover to see other rain measurements)
** Current wind speed in m/s (hover to see current wind gust speed)